User: anonymous   Login
Location: Shenandoah County Park
(38.9356°N, 78.4524°W)
Time: 17:51:11
(UTC-04:00)
Language:

Explorer 11/Cluster Stage 4 - Orbit

View from above orbital plane
View from above orbital plane
View from above satellite
View from above satellite

Ground track
Ground track

The orbit data is extracted from the following two-line orbital elements,

1   107U 61013A   24147.11866700  .00002602  00000-0  31658-3 0  9992
2   107  28.7905 313.1568 0521549 336.3749  21.3660 14.15253832169119
Epoch (UTC): 26 May 2024 02:50:52
Eccentricity: 0.0521549
inclination: 28.7905°
perigee height: 465 km
apogee height: 1218 km
right ascension of ascending node: 313.1568°
argument of perigee: 336.3749°
revolutions per day: 14.15253832
mean anomaly at epoch: 21.3660°
orbit number at epoch: 16911

The dashed part of the orbit path shows where the satellite is in the earth's shadow,  

DLR